owner,sensor,date,latitude,longitude,vertical_datum,direction_of_sea_water_velocity,sea_water_speed,upward_sea_water_velocity,qcFlag 
TABS,ioos:station:wmo:42051:1,2001-12-01T00:00:00Z,29.6350,-93.6417,2.0,11.33683604,12.61615235,-99999.0,'11111222,11111222,99999999' 
TABS,ioos:station:wmo:42051:1,2001-12-01T00:30:00Z,29.6350,-93.6417,2.0,10.09056593,14.09806015,-99999.0,'11111222,11111222,99999999' 
TABS,ioos:station:wmo:42051:1,2001-12-01T01:00:00Z,29.6350,-93.6417,2.0,18.56736209,10.96048357,-99999.0,'11111222,11111222,99999999' 
TABS,ioos:station:wmo:42051:1,2001-12-01T01:30:00Z,29.6350,-93.6417,2.0,15.39500571,11.15007175,-99999.0,'11111222,11111222,99999999' 
TABS,ioos:station:wmo:42051:1,2001-12-01T02:00:00Z,29.6350,-93.6417,2.0,23.22388742,11.96989557,-99999.0,'11111222,11111222,99999999' 
TABS,ioos:station:wmo:42051:1,2001-12-01T02:30:00Z,29.6350,-93.6417,2.0,22.71864427,12.06617172,-99999.0,'11111222,11111222,99999999' 
TABS,ioos:station:wmo:42051:1,2001-12-01T03:00:00Z,29.6350,-93.6417,2.0,7.903781584,13.23572816,-99999.0,'11111222,11111222,99999999' 
TABS,ioos:station:wmo:42051:1,2001-12-01T03:30:00Z,29.6350,-93.6417,2.0,9.290075465,12.0176204,-99999.0,'11111222,11111222,99999999' 
TABS,ioos:station:wmo:42051:1,2001-12-01T04:00:00Z,29.6350,-93.6417,2.0,10.7956388,9.610078043,-99999.0,'11133222,11111222,99999999' 
TABS,ioos:station:wmo:42051:1,2001-12-01T04:30:00Z,29.6350,-93.6417,2.0,19.87781264,10.67607137,-99999.0,'11111222,11111222,99999999' 
TABS,ioos:station:wmo:42051:1,2001-12-01T05:00:00Z,29.6350,-93.6417,2.0,357.4260764,8.238312934,-99999.0,'11133222,11111222,99999999' 
TABS,ioos:station:wmo:42051:1,2001-12-01T05:30:00Z,29.6350,-93.6417,2.0,355.6653901,3.439840113,-99999.0,'11133222,11111222,99999999' 
TABS,ioos:station:wmo:42051:1,2001-12-01T06:00:00Z,29.6350,-93.6417,2.0,22.48821293,6.353093735,-99999.0,'11133222,11111222,99999999' 
TABS,ioos:station:wmo:42051:1,2001-12-01T06:30:00Z,29.6350,-93.6417,2.0,14.22264681,4.477231287,-99999.0,'11133222,11111222,99999999' 
TABS,ioos:station:wmo:42051:1,2001-12-01T07:00:00Z,29.6350,-93.6417,2.0,339.3048081,2.405202694,-99999.0,'11133222,11111222,99999999' 
TABS,ioos:station:wmo:42051:1,2001-12-01T07:30:00Z,29.6350,-93.6417,2.0,352.6141846,3.811626949,-99999.0,'11133222,11111222,99999999' 
TABS,ioos:station:wmo:42051:1,2001-12-01T08:00:00Z,29.6350,-93.6417,2.0,348.8263983,0.825651258,-99999.0,'11133222,11111222,99999999' 
TABS,ioos:station:wmo:42051:1,2001-12-01T08:30:00Z,29.6350,-93.6417,2.0,260.9281027,1.205072612,-99999.0,'11133222,11111222,99999999' 
TABS,ioos:station:wmo:42051:1,2001-12-01T09:00:00Z,29.6350,-93.6417,2.0,219.4447604,2.848876972,-99999.0,'11133222,11111222,99999999' 
TABS,ioos:station:wmo:42051:1,2001-12-01T09:30:00Z,29.6350,-93.6417,2.0,157.1788704,2.191551962,-99999.0,'11133222,11111222,99999999' 
TABS,ioos:station:wmo:42051:1,2001-12-01T10:00:00Z,29.6350,-93.6417,2.0,306.3048331,0.608029605,-99999.0,'11133222,11111222,99999999' 
TABS,ioos:station:wmo:42051:1,2001-12-01T10:30:00Z,29.6350,-93.6417,2.0,192.13015,5.615380664,-99999.0,'11133222,11111222,99999999' 
TABS,ioos:station:wmo:42051:1,2001-12-01T11:00:00Z,29.6350,-93.6417,2.0,177.5430672,3.032787497,-99999.0,'11133222,11111222,99999999' 
TABS,ioos:station:wmo:42051:1,2001-12-01T11:30:00Z,29.6350,-93.6417,2.0,234.7272401,2.008780725,-99999.0,'11133222,11111222,99999999' 
TABS,ioos:station:wmo:42051:1,2001-12-01T12:00:00Z,29.6350,-93.6417,2.0,184.4226906,1.815406291,-99999.0,'11133222,11111222,99999999' 
TABS,ioos:station:wmo:42051:1,2001-12-01T12:30:00Z,29.6350,-93.6417,2.0,284.4851206,1.239395014,-99999.0,'11133222,11111222,99999999' 
TABS,ioos:station:wmo:42051:1,2001-12-01T13:00:00Z,29.6350,-93.6417,2.0,281.0748667,2.863319752,-99999.0,'11133222,11111222,99999999' 
TABS,ioos:station:wmo:42051:1,2001-12-01T13:30:00Z,29.6350,-93.6417,2.0,299.6481215,3.659029926,-99999.0,'11133222,11111222,99999999' 
TABS,ioos:station:wmo:42051:1,2001-12-01T14:00:00Z,29.6350,-93.6417,2.0,271.0336973,4.990811557,-99999.0,'11133222,11111222,99999999' 
TABS,ioos:station:wmo:42051:1,2001-12-01T14:30:00Z,29.6350,-93.6417,2.0,288.6079034,6.299285674,-99999.0,'11133222,11111222,99999999' 
TABS,ioos:station:wmo:42051:1,2001-12-01T15:00:00Z,29.6350,-93.6417,2.0,290.5340165,8.980567911,-99999.0,'11133222,11111222,99999999' 
TABS,ioos:station:wmo:42051:1,2001-12-01T15:30:00Z,29.6350,-93.6417,2.0,287.61217,11.00586207,-99999.0,'11111222,11111222,99999999' 
TABS,ioos:station:wmo:42051:1,2001-12-01T16:00:00Z,29.6350,-93.6417,2.0,287.6406082,15.04756459,-99999.0,'11111222,11111222,99999999' 
TABS,ioos:station:wmo:42051:1,2001-12-01T16:30:00Z,29.6350,-93.6417,2.0,282.0373748,18.70117911,-99999.0,'11111222,11111222,99999999' 
TABS,ioos:station:wmo:42051:1,2001-12-01T17:00:00Z,29.6350,-93.6417,2.0,289.3269775,18.49207668,-99999.0,'11111222,11111222,99999999' 
TABS,ioos:station:wmo:42051:1,2001-12-01T17:30:00Z,29.6350,-93.6417,2.0,283.2685414,18.99709715,-99999.0,'11111222,11111222,99999999' 
TABS,ioos:station:wmo:42051:1,2001-12-01T18:00:00Z,29.6350,-93.6417,2.0,287.5319847,19.05509118,-99999.0,'11111222,11111222,99999999' 
TABS,ioos:station:wmo:42051:1,2001-12-01T18:30:00Z,29.6350,-93.6417,2.0,289.3517732,21.1551814,-99999.0,'11111222,11111222,99999999' 
TABS,ioos:station:wmo:42051:1,2001-12-01T19:00:00Z,29.6350,-93.6417,2.0,289.9406749,22.87116088,-99999.0,'11111222,11111222,99999999' 
TABS,ioos:station:wmo:42051:1,2001-12-01T19:30:00Z,29.6350,-93.6417,2.0,283.8177527,27.30000916,-99999.0,'11111222,11111222,99999999' 
TABS,ioos:station:wmo:42051:1,2001-12-01T20:00:00Z,29.6350,-93.6417,2.0,285.1906654,30.22606987,-99999.0,'11111222,11111222,99999999' 
TABS,ioos:station:wmo:42051:1,2001-12-01T20:30:00Z,29.6350,-93.6417,2.0,281.5800926,29.9904118,-99999.0,'11111222,11111222,99999999' 
TABS,ioos:station:wmo:42051:1,2001-12-01T21:00:00Z,29.6350,-93.6417,2.0,275.3938879,28.40576174,-99999.0,'11111222,11111222,99999999' 
TABS,ioos:station:wmo:42051:1,2001-12-01T21:30:00Z,29.6350,-93.6417,2.0,275.6910252,28.54065346,-99999.0,'11111222,11111222,99999999' 
TABS,ioos:station:wmo:42051:1,2001-12-01T22:00:00Z,29.6350,-93.6417,2.0,275.3071219,25.40890592,-99999.0,'11111222,11111222,99999999' 
TABS,ioos:station:wmo:42051:1,2001-12-01T22:30:00Z,29.6350,-93.6417,2.0,275.3279537,21.43258501,-99999.0,'11111222,11111222,99999999' 
TABS,ioos:station:wmo:42051:1,2001-12-01T23:00:00Z,29.6350,-93.6417,2.0,278.5503744,20.64948668,-99999.0,'11111222,11111222,99999999' 
TABS,ioos:station:wmo:42051:1,2001-12-01T23:30:00Z,29.6350,-93.6417,2.0,270.0752845,22.9600196,-99999.0,'11111222,11111222,99999999' 
TABS,ioos:station:wmo:42051:1,2001-12-02T00:00:00Z,29.6350,-93.6417,2.0,273.9237287,21.63069116,-99999.0,'11111222,11111222,99999999' 
TABS,ioos:station:wmo:42051:1,2001-12-02T00:30:00Z,29.6350,-93.6417,2.0,264.1096778,25.43427019,-99999.0,'11111222,11111222,99999999' 
TABS,ioos:station:wmo:42051:1,2001-12-02T01:00:00Z,29.6350,-93.6417,2.0,267.0788644,23.55059235,-99999.0,'11111222,11111222,99999999' 
TABS,ioos:station:wmo:42051:1,2001-12-02T01:30:00Z,29.6350,-93.6417,2.0,272.2489696,23.95844736,-99999.0,'11111222,11111222,99999999' 
TABS,ioos:station:wmo:42051:1,2001-12-02T02:00:00Z,29.6350,-93.6417,2.0,279.0604105,23.17918463,-99999.0,'11111222,11111222,99999999' 
TABS,ioos:station:wmo:42051:1,2001-12-02T02:30:00Z,29.6350,-93.6417,2.0,279.3318096,19.42707904,-99999.0,'11111222,11111222,99999999' 
TABS,ioos:station:wmo:42051:1,2001-12-02T03:00:00Z,29.6350,-93.6417,2.0,273.7266533,21.69586597,-99999.0,'11111222,11111222,99999999' 
TABS,ioos:station:wmo:42051:1,2001-12-02T03:30:00Z,29.6350,-93.6417,2.0,272.1233827,22.67556394,-99999.0,'11111222,11111222,99999999' 
TABS,ioos:station:wmo:42051:1,2001-12-02T04:00:00Z,29.6350,-93.6417,2.0,268.866762,21.24415214,-99999.0,'11111222,11111222,99999999' 
TABS,ioos:station:wmo:42051:1,2001-12-02T04:30:00Z,29.6350,-93.6417,2.0,267.4547807,20.26999013,-99999.0,'11111222,11111222,99999999' 
TABS,ioos:station:wmo:42051:1,2001-12-02T05:00:00Z,29.6350,-93.6417,2.0,264.7962015,23.15542269,-99999.0,'11111222,11111222,99999999' 
TABS,ioos:station:wmo:42051:1,2001-12-02T05:30:00Z,29.6350,-93.6417,2.0,261.0789992,23.47393661,-99999.0,'11111222,11111222,99999999' 
TABS,ioos:station:wmo:42051:1,2001-12-02T06:00:00Z,29.6350,-93.6417,2.0,264.261418,24.80428995,-99999.0,'11111222,11111222,99999999' 
TABS,ioos:station:wmo:42051:1,2001-12-02T06:30:00Z,29.6350,-93.6417,2.0,265.8862318,26.48823135,-99999.0,'11111222,11111222,99999999' 
TABS,ioos:station:wmo:42051:1,2001-12-02T07:00:00Z,29.6350,-93.6417,2.0,261.8262584,26.23649748,-99999.0,'11111222,11111222,99999999' 
TABS,ioos:station:wmo:42051:1,2001-12-02T07:30:00Z,29.6350,-93.6417,2.0,266.2257051,27.49963091,-99999.0,'11111222,11111222,99999999' 
TABS,ioos:station:wmo:42051:1,2001-12-02T08:00:00Z,29.6350,-93.6417,2.0,261.5248195,29.85600275,-99999.0,'11111222,11111222,99999999' 
TABS,ioos:station:wmo:42051:1,2001-12-02T08:30:00Z,29.6350,-93.6417,2.0,264.1401625,25.6640858,-99999.0,'11111222,11111222,99999999' 
TABS,ioos:station:wmo:42051:1,2001-12-02T09:00:00Z,29.6350,-93.6417,2.0,252.6855618,26.51128439,-99999.0,'11111222,11111222,99999999' 
TABS,ioos:station:wmo:42051:1,2001-12-02T09:30:00Z,29.6350,-93.6417,2.0,262.691754,20.990505,-99999.0,'11111222,11111222,99999999' 
TABS,ioos:station:wmo:42051:1,2001-12-02T10:00:00Z,29.6350,-93.6417,2.0,252.202554,24.99619171,-99999.0,'11111222,11111222,99999999' 
TABS,ioos:station:wmo:42051:1,2001-12-02T10:30:00Z,29.6350,-93.6417,2.0,250.547617,26.54517847,-99999.0,'11111222,11111222,99999999' 
TABS,ioos:station:wmo:42051:1,2001-12-02T11:00:00Z,29.6350,-93.6417,2.0,248.8214294,25.43805221,-99999.0,'11111222,11111222,99999999' 
TABS,ioos:station:wmo:42051:1,2001-12-02T11:30:00Z,29.6350,-93.6417,2.0,239.8451017,23.07229074,-99999.0,'11111222,11111222,99999999' 
TABS,ioos:station:wmo:42051:1,2001-12-02T12:00:00Z,29.6350,-93.6417,2.0,245.3700018,25.02693349,-99999.0,'11111222,11111222,99999999' 
TABS,ioos:station:wmo:42051:1,2001-12-02T12:30:00Z,29.6350,-93.6417,2.0,248.9102757,23.01128636,-99999.0,'11111222,11111222,99999999' 
TABS,ioos:station:wmo:42051:1,2001-12-02T13:00:00Z,29.6350,-93.6417,2.0,239.4420906,18.62692943,-99999.0,'11111222,11111222,99999999' 
TABS,ioos:station:wmo:42051:1,2001-12-02T13:30:00Z,29.6350,-93.6417,2.0,239.4190989,16.9238589,-99999.0,'11111222,11111222,99999999' 
TABS,ioos:station:wmo:42051:1,2001-12-02T14:00:00Z,29.6350,-93.6417,2.0,243.8059312,16.56066726,-99999.0,'11111222,11111222,99999999' 
TABS,ioos:station:wmo:42051:1,2001-12-02T14:30:00Z,29.6350,-93.6417,2.0,249.363064,14.15848156,-99999.0,'11111222,11111222,99999999' 
TABS,ioos:station:wmo:42051:1,2001-12-02T15:00:00Z,29.6350,-93.6417,2.0,233.5621794,13.25037735,-99999.0,'11111222,11111222,99999999' 
TABS,ioos:station:wmo:42051:1,2001-12-02T15:30:00Z,29.6350,-93.6417,2.0,234.6905048,18.94502837,-99999.0,'11111222,11111222,99999999' 
TABS,ioos:station:wmo:42051:1,2001-12-02T16:00:00Z,29.6350,-93.6417,2.0,256.3298011,20.0993383,-99999.0,'11111222,11111222,99999999' 
TABS,ioos:station:wmo:42051:1,2001-12-02T16:30:00Z,29.6350,-93.6417,2.0,265.9251993,21.81513465,-99999.0,'11111222,11111222,99999999' 
TABS,ioos:station:wmo:42051:1,2001-12-02T17:00:00Z,29.6350,-93.6417,2.0,259.7304,27.31760055,-99999.0,'11111222,11111222,99999999' 
TABS,ioos:station:wmo:42051:1,2001-12-02T17:30:00Z,29.6350,-93.6417,2.0,281.8867224,25.3434094,-99999.0,'11111222,11111222,99999999' 
TABS,ioos:station:wmo:42051:1,2001-12-02T18:00:00Z,29.6350,-93.6417,2.0,286.76836,23.15450928,-99999.0,'11111222,11111222,99999999' 
TABS,ioos:station:wmo:42051:1,2001-12-02T18:30:00Z,29.6350,-93.6417,2.0,292.8512259,24.23173539,-99999.0,'11111222,11111222,99999999' 
TABS,ioos:station:wmo:42051:1,2001-12-02T19:00:00Z,29.6350,-93.6417,2.0,290.9596722,22.61642103,-99999.0,'11111222,11111222,99999999' 
TABS,ioos:station:wmo:42051:1,2001-12-02T19:30:00Z,29.6350,-93.6417,2.0,283.084643,18.68509834,-99999.0,'11111222,11111222,99999999' 
TABS,ioos:station:wmo:42051:1,2001-12-02T20:00:00Z,29.6350,-93.6417,2.0,288.7770757,24.38791914,-99999.0,'11111222,11111222,99999999' 
TABS,ioos:station:wmo:42051:1,2001-12-02T20:30:00Z,29.6350,-93.6417,2.0,274.9585558,25.68611493,-99999.0,'11111222,11111222,99999999' 
TABS,ioos:station:wmo:42051:1,2001-12-02T21:00:00Z,29.6350,-93.6417,2.0,276.9517733,26.1925352,-99999.0,'11111222,11111222,99999999' 
TABS,ioos:station:wmo:42051:1,2001-12-02T21:30:00Z,29.6350,-93.6417,2.0,277.2496708,26.31030977,-99999.0,'11111222,11111222,99999999' 
TABS,ioos:station:wmo:42051:1,2001-12-02T22:00:00Z,29.6350,-93.6417,2.0,276.3987249,25.03594416,-99999.0,'11111222,11111222,99999999' 
TABS,ioos:station:wmo:42051:1,2001-12-02T22:30:00Z,29.6350,-93.6417,2.0,266.7427533,23.93866329,-99999.0,'11111222,11111222,99999999' 
TABS,ioos:station:wmo:42051:1,2001-12-02T23:00:00Z,29.6350,-93.6417,2.0,278.6693189,22.55770378,-99999.0,'11111222,11111222,99999999' 
TABS,ioos:station:wmo:42051:1,2001-12-02T23:30:00Z,29.6350,-93.6417,2.0,273.0711501,19.22760776,-99999.0,'11111222,11111222,99999999' 
TABS,ioos:station:wmo:42051:1,2001-12-03T00:00:00Z,29.6350,-93.6417,2.0,265.3983304,22.56271703,-99999.0,'11111222,11111222,99999999' 
TABS,ioos:station:wmo:42051:1,2001-12-03T00:30:00Z,29.6350,-93.6417,2.0,265.1420173,19.24913764,-99999.0,'11111222,11111222,99999999' 
TABS,ioos:station:wmo:42051:1,2001-12-03T01:00:00Z,29.6350,-93.6417,2.0,258.9384225,18.97245372,-99999.0,'11111222,11111222,99999999' 
TABS,ioos:station:wmo:42051:1,2001-12-03T01:30:00Z,29.6350,-93.6417,2.0,258.8068685,17.258256,-99999.0,'11111222,11111222,99999999' 
TABS,ioos:station:wmo:42051:1,2001-12-03T02:00:00Z,29.6350,-93.6417,2.0,245.5332799,19.05066141,-99999.0,'11111222,11111222,99999999' 
TABS,ioos:station:wmo:42051:1,2001-12-03T02:30:00Z,29.6350,-93.6417,2.0,244.0494465,22.92101656,-99999.0,'11111222,11111222,99999999' 
TABS,ioos:station:wmo:42051:1,2001-12-03T03:00:00Z,29.6350,-93.6417,2.0,251.9548855,21.82338425,-99999.0,'11111222,11111222,99999999' 
TABS,ioos:station:wmo:42051:1,2001-12-03T03:30:00Z,29.6350,-93.6417,2.0,246.9357766,26.80234318,-99999.0,'11111222,11111222,99999999' 
TABS,ioos:station:wmo:42051:1,2001-12-03T04:00:00Z,29.6350,-93.6417,2.0,260.095419,21.74405666,-99999.0,'11111222,11111222,99999999' 
TABS,ioos:station:wmo:42051:1,2001-12-03T04:30:00Z,29.6350,-93.6417,2.0,270.3891235,14.74033921,-99999.0,'11111222,11111222,99999999' 
TABS,ioos:station:wmo:42051:1,2001-12-03T05:00:00Z,29.6350,-93.6417,2.0,276.375727,12.6079697,-99999.0,'11111222,11111222,99999999' 
TABS,ioos:station:wmo:42051:1,2001-12-03T05:30:00Z,29.6350,-93.6417,2.0,271.0462699,14.7924643,-99999.0,'11111222,11111222,99999999' 
TABS,ioos:station:wmo:42051:1,2001-12-03T06:00:00Z,29.6350,-93.6417,2.0,256.0291499,10.56243343,-99999.0,'11111222,11111222,99999999' 
TABS,ioos:station:wmo:42051:1,2001-12-03T06:30:00Z,29.6350,-93.6417,2.0,250.0494121,13.39376721,-99999.0,'11111222,11111222,99999999' 
TABS,ioos:station:wmo:42051:1,2001-12-03T07:00:00Z,29.6350,-93.6417,2.0,251.3831124,13.97101285,-99999.0,'11111222,11111222,99999999' 
TABS,ioos:station:wmo:42051:1,2001-12-03T07:30:00Z,29.6350,-93.6417,2.0,248.8335592,17.91884483,-99999.0,'11111222,11111222,99999999' 
TABS,ioos:station:wmo:42051:1,2001-12-03T08:00:00Z,29.6350,-93.6417,2.0,246.8617282,17.35609403,-99999.0,'11111222,11111222,99999999' 
TABS,ioos:station:wmo:42051:1,2001-12-03T08:30:00Z,29.6350,-93.6417,2.0,239.8895921,18.87722967,-99999.0,'11111222,11111222,99999999' 
TABS,ioos:station:wmo:42051:1,2001-12-03T09:00:00Z,29.6350,-93.6417,2.0,247.1387853,17.37476906,-99999.0,'11111222,11111222,99999999' 
TABS,ioos:station:wmo:42051:1,2001-12-03T09:30:00Z,29.6350,-93.6417,2.0,253.1000139,14.51690394,-99999.0,'11111222,11111222,99999999' 
TABS,ioos:station:wmo:42051:1,2001-12-03T10:00:00Z,29.6350,-93.6417,2.0,244.0320896,15.43865279,-99999.0,'11111222,11111222,99999999' 
TABS,ioos:station:wmo:42051:1,2001-12-03T10:30:00Z,29.6350,-93.6417,2.0,244.0546123,15.29112815,-99999.0,'11111222,11111222,99999999' 
TABS,ioos:station:wmo:42051:1,2001-12-03T11:00:00Z,29.6350,-93.6417,2.0,241.8910689,14.94235591,-99999.0,'11111222,11111222,99999999' 
TABS,ioos:station:wmo:42051:1,2001-12-03T11:30:00Z,29.6350,-93.6417,2.0,234.5793418,15.89108555,-99999.0,'11111222,11111222,99999999' 
TABS,ioos:station:wmo:42051:1,2001-12-03T12:00:00Z,29.6350,-93.6417,2.0,237.843425,14.09166065,-99999.0,'11111222,11111222,99999999' 
TABS,ioos:station:wmo:42051:1,2001-12-03T12:30:00Z,29.6350,-93.6417,2.0,237.2242651,12.85681531,-99999.0,'11111222,11111222,99999999' 
TABS,ioos:station:wmo:42051:1,2001-12-03T13:00:00Z,29.6350,-93.6417,2.0,241.2205266,10.30254823,-99999.0,'11111222,11111222,99999999' 
TABS,ioos:station:wmo:42051:1,2001-12-03T13:30:00Z,29.6350,-93.6417,2.0,234.7673878,9.377830239,-99999.0,'11133222,11111222,99999999' 
TABS,ioos:station:wmo:42051:1,2001-12-03T14:00:00Z,29.6350,-93.6417,2.0,224.2583772,7.651535794,-99999.0,'11133222,11111222,99999999' 
TABS,ioos:station:wmo:42051:1,2001-12-03T14:30:00Z,29.6350,-93.6417,2.0,234.4703622,7.950176099,-99999.0,'11133222,11111222,99999999' 
TABS,ioos:station:wmo:42051:1,2001-12-03T15:00:00Z,29.6350,-93.6417,2.0,230.7842233,7.085936776,-99999.0,'11133222,11111222,99999999' 
TABS,ioos:station:wmo:42051:1,2001-12-03T15:30:00Z,29.6350,-93.6417,2.0,265.1004981,3.512833614,-99999.0,'11133222,11111222,99999999' 
TABS,ioos:station:wmo:42051:1,2001-12-03T16:00:00Z,29.6350,-93.6417,2.0,260.4901221,3.994896745,-99999.0,'11133222,11111222,99999999' 
TABS,ioos:station:wmo:42051:1,2001-12-03T16:30:00Z,29.6350,-93.6417,2.0,273.6296959,7.424890572,-99999.0,'11133222,11111222,99999999' 
TABS,ioos:station:wmo:42051:1,2001-12-03T17:00:00Z,29.6350,-93.6417,2.0,300.2835652,4.620497809,-99999.0,'11133222,11111222,99999999' 
TABS,ioos:station:wmo:42051:1,2001-12-03T17:30:00Z,29.6350,-93.6417,2.0,313.33356,9.967351704,-99999.0,'11133222,11111222,99999999' 
TABS,ioos:station:wmo:42051:1,2001-12-03T18:00:00Z,29.6350,-93.6417,2.0,301.719409,9.757402318,-99999.0,'11133222,11111222,99999999' 
TABS,ioos:station:wmo:42051:1,2001-12-03T18:30:00Z,29.6350,-93.6417,2.0,339.8244185,6.349622036,-99999.0,'11133222,11111222,99999999' 
TABS,ioos:station:wmo:42051:1,2001-12-04T07:00:00Z,29.6350,-93.6417,2.0,7.847819612,6.884475289,-99999.0,'11133222,11111222,99999999' 
TABS,ioos:station:wmo:42051:1,2001-12-04T07:30:00Z,29.6350,-93.6417,2.0,11.06421394,5.940412444,-99999.0,'11133222,11111222,99999999' 
TABS,ioos:station:wmo:42051:1,2001-12-04T08:00:00Z,29.6350,-93.6417,2.0,353.1968273,7.512902235,-99999.0,'11133222,11111222,99999999' 
TABS,ioos:station:wmo:42051:1,2001-12-04T13:00:00Z,29.6350,-93.6417,2.0,358.8498501,7.471505872,-99999.0,'11133222,11111222,99999999' 
TABS,ioos:station:wmo:42051:1,2001-12-04T13:30:00Z,29.6350,-93.6417,2.0,356.126262,6.364542403,-99999.0,'11133222,11111222,99999999' 
TABS,ioos:station:wmo:42051:1,2001-12-04T14:00:00Z,29.6350,-93.6417,2.0,349.8588053,7.212690205,-99999.0,'11133222,11111222,99999999' 
TABS,ioos:station:wmo:42051:1,2001-12-04T14:30:00Z,29.6350,-93.6417,2.0,343.2455839,10.89240561,-99999.0,'11111222,11111222,99999999' 
TABS,ioos:station:wmo:42051:1,2001-12-04T15:00:00Z,29.6350,-93.6417,2.0,342.2555803,11.02449999,-99999.0,'11111222,11111222,99999999' 
TABS,ioos:station:wmo:42051:1,2001-12-04T15:30:00Z,29.6350,-93.6417,2.0,335.5395671,11.32661468,-99999.0,'11111222,11111222,99999999' 
TABS,ioos:station:wmo:42051:1,2001-12-04T16:00:00Z,29.6350,-93.6417,2.0,328.1578277,12.30132513,-99999.0,'11111222,11111222,99999999' 
TABS,ioos:station:wmo:42051:1,2001-12-04T16:30:00Z,29.6350,-93.6417,2.0,326.2902232,15.89216159,-99999.0,'11111222,11111222,99999999' 
TABS,ioos:station:wmo:42051:1,2001-12-04T17:00:00Z,29.6350,-93.6417,2.0,322.2871018,15.21964848,-99999.0,'11111222,11111222,99999999' 
TABS,ioos:station:wmo:42051:1,2001-12-04T17:30:00Z,29.6350,-93.6417,2.0,309.3620958,15.0422239,-99999.0,'11111222,11111222,99999999' 
TABS,ioos:station:wmo:42051:1,2001-12-04T18:00:00Z,29.6350,-93.6417,2.0,327.8615995,17.31299223,-99999.0,'11111222,11111222,99999999' 
TABS,ioos:station:wmo:42051:1,2001-12-04T18:30:00Z,29.6350,-93.6417,2.0,313.9146313,16.0471337,-99999.0,'11111222,11111222,99999999' 
TABS,ioos:station:wmo:42051:1,2001-12-04T19:00:00Z,29.6350,-93.6417,2.0,313.1556462,17.79295647,-99999.0,'11111222,11111222,99999999' 
TABS,ioos:station:wmo:42051:1,2001-12-04T19:30:00Z,29.6350,-93.6417,2.0,311.0402892,22.52563429,-99999.0,'11111222,11111222,99999999' 
TABS,ioos:station:wmo:42051:1,2001-12-04T20:00:00Z,29.6350,-93.6417,2.0,314.2694001,21.61801332,-99999.0,'11111222,11111222,99999999' 
TABS,ioos:station:wmo:42051:1,2001-12-04T20:30:00Z,29.6350,-93.6417,2.0,310.174363,28.07266642,-99999.0,'11111222,11111222,99999999' 
TABS,ioos:station:wmo:42051:1,2001-12-04T21:00:00Z,29.6350,-93.6417,2.0,304.1820015,30.06308367,-99999.0,'11111222,11111222,99999999' 
TABS,ioos:station:wmo:42051:1,2001-12-04T21:30:00Z,29.6350,-93.6417,2.0,300.7419369,32.72903604,-99999.0,'11111222,11111222,99999999' 
TABS,ioos:station:wmo:42051:1,2001-12-04T22:00:00Z,29.6350,-93.6417,2.0,300.0506096,35.60591664,-99999.0,'11111222,11111222,99999999' 
TABS,ioos:station:wmo:42051:1,2001-12-04T22:30:00Z,29.6350,-93.6417,2.0,298.1325281,36.13943137,-99999.0,'11111222,11111222,99999999' 
TABS,ioos:station:wmo:42051:1,2001-12-04T23:00:00Z,29.6350,-93.6417,2.0,296.6263124,37.86559652,-99999.0,'11111222,11111222,99999999' 
TABS,ioos:station:wmo:42051:1,2001-12-04T23:30:00Z,29.6350,-93.6417,2.0,294.8633271,34.62961161,-99999.0,'11111222,11111222,99999999' 
TABS,ioos:station:wmo:42051:1,2001-12-05T00:00:00Z,29.6350,-93.6417,2.0,290.1539622,32.15901895,-99999.0,'11111222,11111222,99999999' 
TABS,ioos:station:wmo:42051:1,2001-12-05T00:30:00Z,29.6350,-93.6417,2.0,281.6145741,31.39275235,-99999.0,'11111222,11111222,99999999' 
TABS,ioos:station:wmo:42051:1,2001-12-05T01:00:00Z,29.6350,-93.6417,2.0,277.1082743,29.01296607,-99999.0,'11111222,11111222,99999999' 
TABS,ioos:station:wmo:42051:1,2001-12-05T01:30:00Z,29.6350,-93.6417,2.0,267.4471983,28.51829238,-99999.0,'11111222,11111222,99999999' 
TABS,ioos:station:wmo:42051:1,2001-12-05T02:00:00Z,29.6350,-93.6417,2.0,265.6036449,31.83364886,-99999.0,'11111222,11111222,99999999' 
TABS,ioos:station:wmo:42051:1,2001-12-05T02:30:00Z,29.6350,-93.6417,2.0,274.2738741,33.68364885,-99999.0,'11111222,11111222,99999999' 
TABS,ioos:station:wmo:42051:1,2001-12-05T19:00:00Z,29.6350,-93.6417,2.0,251.834549,28.868753,-99999.0,'11111222,11111222,99999999' 
TABS,ioos:station:wmo:42051:1,2001-12-05T19:30:00Z,29.6350,-93.6417,2.0,258.2057686,30.18727215,-99999.0,'11111222,11111222,99999999' 
TABS,ioos:station:wmo:42051:1,2001-12-05T20:00:00Z,29.6350,-93.6417,2.0,261.5387926,29.1573267,-99999.0,'11111222,11111222,99999999' 
TABS,ioos:station:wmo:42051:1,2001-12-05T20:30:00Z,29.6350,-93.6417,2.0,261.5696708,28.37658366,-99999.0,'11111222,11111222,99999999' 
TABS,ioos:station:wmo:42051:1,2001-12-05T21:00:00Z,29.6350,-93.6417,2.0,265.3004277,32.46914227,-99999.0,'11111222,11111222,99999999' 
TABS,ioos:station:wmo:42051:1,2001-12-05T21:30:00Z,29.6350,-93.6417,2.0,267.3954878,33.89500258,-99999.0,'11111222,11111222,99999999' 
TABS,ioos:station:wmo:42051:1,2001-12-05T22:00:00Z,29.6350,-93.6417,2.0,265.5875222,32.88745962,-99999.0,'11111222,11111222,99999999' 
TABS,ioos:station:wmo:42051:1,2001-12-05T22:30:00Z,29.6350,-93.6417,2.0,257.8777977,23.66771007,-99999.0,'11111222,11111222,99999999' 
TABS,ioos:station:wmo:42051:1,2001-12-05T23:00:00Z,29.6350,-93.6417,2.0,254.8775377,30.97251039,-99999.0,'11111222,11111222,99999999' 
TABS,ioos:station:wmo:42051:1,2001-12-05T23:30:00Z,29.6350,-93.6417,2.0,250.7113345,30.78818767,-99999.0,'11111222,11111222,99999999' 
TABS,ioos:station:wmo:42051:1,2001-12-06T00:00:00Z,29.6350,-93.6417,2.0,252.8850839,28.54397309,-99999.0,'11111222,11111222,99999999' 
TABS,ioos:station:wmo:42051:1,2001-12-06T00:30:00Z,29.6350,-93.6417,2.0,246.3368575,32.41536981,-99999.0,'11111222,11111222,99999999' 